Elkins, WV

4:44 PM EDT on May 25, 2017 (GMT -0400)
Elkins-Randolph County

Weather History for KEKN - September, 2013

Change the Weather History Date:

Wednesday, September 11, 2013

  Actual Average Record
Temperature  
Mean Temperature 74 °F 64 °F  
Max Temperature 84 °F 75 °F 91 °F (1925)
Min Temperature 64 °F 53 °F 34 °F (1917)
Degree Days  
Heating Degree Days 0 3  
Month to date heating degree days 5 22  
Since 1 July heating degree days 28 52  
Cooling Degree Days 9 2  
Month to date cooling degree days 48 27  
Year to date cooling degree days 511 453  
Growing Degree Days 24 (Base 50)    
Moisture  
Dew Point 66 °F    
Average Humidity 79    
Maximum Humidity 93    
Minimum Humidity 65    
Precipitation  
Precipitation 0.02 in 0.11 in 1.92 in (2000)
Month to date precipitation 0.80 1.32  
Year to date precipitation 33.72 34.13  
Snow  
Snow 0.00 in - - ()
Month to date snowfall 0.0  
Since 1 September snowfall 0.0  
Snow Depth 0.00 in    
Sea Level Pressure  
Sea Level Pressure 30.22 in    
Wind  
Wind Speed 2 mph (NW)    
Max Wind Speed 16 mph    
Max Gust Speed 21 mph    
Visibility 5 miles    
Events Fog , Rain    
T = Trace of Precipitation, MM = Missing Value Source: NWS Daily Summary

Daily Weather History Graph

Daily Weather History Graph

Search for Another Location

Airport or City:

Trip Planner

Search our weather history database for the weather conditions in past years. The results will help you decide how hot, cold, wet, or windy it might be!

Date:

Astronomy

Sep. 11, 2013 Rise Set
Actual Time 6:57 AM EDT 7:33 PM EDT
Civil Twilight 6:30 AM EDT 8:00 PM EDT
Nautical Twilight 5:58 AM EDT 8:32 PM EDT
Astronomical Twilight 5:26 AM EDT 9:04 PM EDT
Moon 1:20 PM EDT (9/11) 11:31 PM EDT (9/11)
Length of Visible Light 13h 29m
Length of Day
12h 36m
Waxing Crescent, 38% of the Moon is Illuminated
Sep 11
Waxing Crescent
Sep 12
First Quarter
Sep 19
Full
Sep 26
Last Quarter
Oct 4
New

Hourly Weather History & Observations

Time (EDT) Temp. Heat Index Dew Point Humidity Pressure Visibility Wind Dir Wind Speed Gust Speed Precip Events Conditions
12:51 AM 66.9 °F - 64.9 °F 93% 30.24 in 2.0 mi Calm Calm - N/A   Clear
1:07 AM 66.2 °F - 64.4 °F 94% 30.27 in 4.0 mi Calm Calm - N/A   Clear
1:19 AM 66.2 °F - 64.4 °F 94% 30.27 in 1.8 mi Calm Calm - N/A   Clear
1:28 AM 66.2 °F - 64.4 °F 94% 30.27 in 2.0 mi Calm Calm - N/A   Partly Cloudy
1:35 AM 66.2 °F - 64.4 °F 94% 30.26 in 5.0 mi Calm Calm - N/A   Mostly Cloudy
1:47 AM 66.2 °F - 64.4 °F 94% 30.26 in 1.5 mi Calm Calm - N/A   Mostly Cloudy
1:51 AM 66.0 °F - 64.0 °F 93% 30.23 in 0.8 mi Calm Calm - N/A   Mist
2:04 AM 66.2 °F - 64.4 °F 94% 30.26 in 0.2 mi Calm Calm - N/A Fog Fog
2:13 AM 66.2 °F - 64.4 °F 94% 30.26 in 0.5 mi Calm Calm - N/A Fog Fog
2:51 AM 66.0 °F - 64.9 °F 96% 30.22 in 0.5 mi Calm Calm - N/A Fog Fog
3:46 AM 66.2 °F - 64.4 °F 94% 30.25 in 0.2 mi Calm Calm - N/A Fog Fog
3:51 AM 66.0 °F - 64.9 °F 96% 30.22 in 0.5 mi Calm Calm - N/A Fog Fog
4:51 AM 64.9 °F - 63.0 °F 93% 30.22 in 0.5 mi Calm Calm - N/A Fog Fog
5:51 AM 64.0 °F - 63.0 °F 96% 30.22 in 0.8 mi Calm Calm - N/A   Mist
6:35 AM 64.4 °F - 64.4 °F 100% 30.27 in 1.0 mi Calm Calm - N/A   Overcast
6:42 AM 64.4 °F - 64.4 °F 100% 30.27 in 3.0 mi Calm Calm - N/A   Overcast
6:51 AM 66.0 °F - 64.0 °F 93% 30.24 in 2.0 mi Calm Calm - N/A   Overcast
6:56 AM 66.2 °F - 64.4 °F 94% 30.27 in 1.0 mi Calm Calm - N/A   Overcast
7:03 AM 66.2 °F - 64.4 °F 94% 30.27 in 0.5 mi Calm Calm - N/A Fog Fog
7:13 AM 66.2 °F - 64.4 °F 94% 30.27 in 0.2 mi Calm Calm - N/A Fog Fog
7:36 AM 66.2 °F - 64.4 °F 94% 30.28 in 0.5 mi Calm Calm - N/A Fog Fog
7:51 AM 66.0 °F - 64.9 °F 96% 30.26 in 1.8 mi Calm Calm - N/A   Overcast
7:59 AM 66.2 °F - 64.4 °F 94% 30.28 in 3.0 mi Calm Calm - N/A   Overcast
8:51 AM 66.9 °F - 64.9 °F 93% 30.26 in 4.0 mi Calm Calm - N/A   Overcast
9:18 AM 69.8 °F - 66.2 °F 88% 30.28 in 9.0 mi Calm Calm - N/A   Partly Cloudy
9:51 AM 73.0 °F - 68.0 °F 84% 30.25 in 10.0 mi Calm Calm - N/A   Scattered Clouds
10:48 AM 75.2 °F - 69.8 °F 83% 30.27 in 10.0 mi Calm Calm - N/A   Mostly Cloudy
10:51 AM 77.0 °F - 69.1 °F 76% 30.24 in 10.0 mi Calm Calm - N/A   Mostly Cloudy
11:19 AM 80.6 °F 83.9 °F 69.8 °F 70% 30.26 in 10.0 mi Calm Calm - N/A   Scattered Clouds
11:51 AM 80.1 °F 82.7 °F 68.0 °F 67% 30.21 in 10.0 mi North 3.5 mph - N/A   Scattered Clouds
12:06 PM 80.6 °F 83.9 °F 69.8 °F 70% 30.24 in 10.0 mi NW 3.5 mph - N/A   Mostly Cloudy
12:31 PM 77.0 °F - 69.8 °F 78% 30.24 in 10.0 mi WNW 8.1 mph - 0.00 in Rain Light Rain
12:51 PM 78.1 °F - 70.0 °F 76% 30.20 in 10.0 mi WNW 5.8 mph - 0.00 in   Mostly Cloudy
1:51 PM 81.0 °F 84.4 °F 70.0 °F 69% 30.17 in 10.0 mi NW 6.9 mph - N/A   Partly Cloudy
2:51 PM 82.0 °F 86.3 °F 71.1 °F 69% 30.15 in 10.0 mi NW 6.9 mph - N/A   Clear
3:51 PM 82.0 °F 85.5 °F 69.1 °F 65% 30.12 in 10.0 mi Variable 3.5 mph - N/A   Partly Cloudy
4:51 PM 78.1 °F - 68.0 °F 71% 30.12 in 10.0 mi WNW 10.4 mph - N/A   Overcast
5:51 PM 73.0 °F - 68.0 °F 84% 30.16 in 10.0 mi SE 4.6 mph - 0.02 in   Scattered Clouds
6:51 PM 73.9 °F - 69.1 °F 85% 30.13 in 10.0 mi South 5.8 mph - N/A   Clear
7:51 PM 71.1 °F - 66.9 °F 87% 30.15 in 10.0 mi Calm Calm - N/A   Clear
8:51 PM 69.1 °F - 66.9 °F 93% 30.15 in 10.0 mi Calm Calm - N/A   Partly Cloudy
9:51 PM 68.0 °F - 66.0 °F 93% 30.14 in 10.0 mi Calm Calm - N/A   Partly Cloudy
10:51 PM 66.0 °F - 64.9 °F 96% 30.14 in 8.0 mi Calm Calm - N/A   Clear
11:51 PM 66.9 °F - 64.9 °F 93% 30.12 in 10.0 mi Calm Calm - N/A   Scattered Clouds